AEE243 LGSM-LGAV

Flight info

Callsign AEE243
Flight time 0h 35m
Altitude 22000
Route URNIL L609 IKARO P32 RIPLI L995 VARIX
Aircraft A320/M-SDE3FGHIRWY/LB1

Departure

Time 2026-05-08 09:11
Airport Samos Airport (LGSM)

Arrival

Time 2026-05-08 09:46
Airport Athens Eleftherios Venizelos International Airport (LGAV)
Time Latitude Longitude Altitude Speed Heading
2026-05-08 08:30 37.69061 26.91379 29 ft 0 kts
2026-05-08 09:03 37.69037 26.91378 31 ft 4 kts 354°
2026-05-08 09:03 37.69012 26.91386 29 ft 4 kts 330°
2026-05-08 09:03 37.68996 26.91405 29 ft 3 kts 273°
2026-05-08 09:04 37.68995 26.91415 29 ft 0 kts 268°
2026-05-08 09:06 37.68995 26.91409 29 ft 2 kts 268°
2026-05-08 09:06 37.68988 26.91381 29 ft 5 kts 232°
2026-05-08 09:06 37.68950 26.91369 29 ft 7 kts 187°
2026-05-08 09:06 37.68911 26.91326 29 ft 10 kts 259°
2026-05-08 09:07 37.68916 26.91232 29 ft 12 kts 274°
2026-05-08 09:07 37.68923 26.91115 29 ft 15 kts 274°
2026-05-08 09:07 37.68931 26.90975 29 ft 17 kts 274°
2026-05-08 09:07 37.68941 26.90811 29 ft 20 kts 274°
2026-05-08 09:08 37.68951 26.90624 29 ft 23 kts 274°
2026-05-08 09:08 37.68965 26.90413 29 ft 25 kts 274°
2026-05-08 09:08 37.68963 26.90244 29 ft 15 kts 261°
2026-05-08 09:08 37.68970 26.90182 29 ft 2 kts
2026-05-08 09:09 37.68976 26.90241 29 ft 5 kts 97°
2026-05-08 09:09 37.68976 26.90246 29 ft 0 kts 96°
2026-05-08 09:10 37.68970 26.90329 29 ft 38 kts 95°
2026-05-08 09:10 37.68928 26.91003 29 ft 110 kts 94°
2026-05-08 09:10 37.68864 26.92165 126 ft 151 kts 95°
2026-05-08 09:11 37.68737 26.93546 629 ft 166 kts 104°
2026-05-08 09:11 37.68197 26.94889 1122 ft 182 kts 133°
2026-05-08 09:11 37.67117 26.95837 1577 ft 200 kts 160°
2026-05-08 09:11 37.65699 26.96089 2101 ft 214 kts 186°
2026-05-08 09:12 37.64224 26.95712 2820 ft 218 kts 193°
2026-05-08 09:12 37.62682 26.95268 3369 ft 239 kts 194°
2026-05-08 09:12 37.60984 26.94773 3958 ft 258 kts 194°
2026-05-08 09:12 37.59213 26.94258 4875 ft 264 kts 194°
2026-05-08 09:13 37.57430 26.93660 5811 ft 267 kts 203°
2026-05-08 09:13 37.55894 26.92347 6715 ft 271 kts 227°
2026-05-08 09:13 37.54940 26.90302 7586 ft 275 kts 253°
2026-05-08 09:13 37.54637 26.87910 8473 ft 279 kts 263°
2026-05-08 09:14 37.54421 26.85472 9381 ft 281 kts 262°
2026-05-08 09:14 37.54205 26.83007 10255 ft 285 kts 262°
2026-05-08 09:14 37.53976 26.80450 10663 ft 305 kts 262°
2026-05-08 09:14 37.53722 26.77698 10939 ft 327 kts 262°
2026-05-08 09:15 37.53455 26.74810 11547 ft 335 kts 262°
2026-05-08 09:15 37.53184 26.71883 12287 ft 338 kts 262°
2026-05-08 09:15 37.52911 26.68922 13045 ft 342 kts 262°
2026-05-08 09:15 37.52636 26.65940 13795 ft 345 kts 262°
2026-05-08 09:16 37.52453 26.63946 14246 ft 347 kts 262°
2026-05-08 09:16 37.52171 26.60918 14904 ft 349 kts 262°
2026-05-08 09:16 37.51887 26.57869 15563 ft 351 kts 262°
2026-05-08 09:16 37.51600 26.54809 16256 ft 352 kts 263°
2026-05-08 09:17 37.51310 26.51749 16994 ft 352 kts 263°
2026-05-08 09:17 37.51020 26.48684 17691 ft 353 kts 263°
2026-05-08 09:17 37.50732 26.45610 18372 ft 355 kts 263°
2026-05-08 09:17 37.50441 26.42513 18972 ft 357 kts 264°
2026-05-08 09:18 37.50148 26.39410 19584 ft 358 kts 264°
2026-05-08 09:18 37.49851 26.36289 20197 ft 359 kts 264°
2026-05-08 09:18 37.49552 26.33158 20803 ft 361 kts 264°
2026-05-08 09:18 37.49250 26.30016 21386 ft 362 kts 265°
2026-05-08 09:19 37.48943 26.26862 21941 ft 364 kts 265°
2026-05-08 09:19 37.48637 26.23705 22140 ft 363 kts 265°
2026-05-08 09:19 37.48330 26.20526 22185 ft 368 kts 265°
2026-05-08 09:19 37.48021 26.17309 22186 ft 372 kts 265°
2026-05-08 09:20 37.47704 26.14069 22184 ft 374 kts 265°
2026-05-08 09:20 37.47386 26.10820 22183 ft 374 kts 265°
2026-05-08 09:20 37.47066 26.07572 22180 ft 374 kts 265°
2026-05-08 09:20 37.46745 26.04315 22184 ft 375 kts 265°
2026-05-08 09:21 37.46424 26.01057 22182 ft 376 kts 265°
2026-05-08 09:21 37.46100 25.97793 22182 ft 376 kts 265°
2026-05-08 09:22 37.51269 25.80018 22179 ft 375 kts 300°
2026-05-08 09:23 37.52663 25.77292 22174 ft 376 kts 300°
2026-05-08 09:23 37.54078 25.74526 22176 ft 376 kts 300°
2026-05-08 09:23 37.55494 25.71758 22191 ft 376 kts 300°
2026-05-08 09:23 37.56918 25.68996 22193 ft 376 kts 300°
2026-05-08 09:24 37.58345 25.66233 22195 ft 376 kts 300°
2026-05-08 09:24 37.59771 25.63471 22018 ft 376 kts 300°
2026-05-08 09:24 37.61196 25.60725 21634 ft 373 kts 300°
2026-05-08 09:24 37.62608 25.58000 21258 ft 370 kts 300°
2026-05-08 09:25 37.64011 25.55285 20886 ft 368 kts 300°
2026-05-08 09:25 37.65402 25.52583 20523 ft 366 kts 300°
2026-05-08 09:25 37.66783 25.49892 20151 ft 365 kts 300°
2026-05-08 09:25 37.68152 25.47210 19793 ft 363 kts 300°
2026-05-08 09:26 37.69511 25.44536 19444 ft 361 kts 300°
2026-05-08 09:26 37.70861 25.41870 19101 ft 359 kts 300°
2026-05-08 09:26 37.72198 25.39216 18747 ft 357 kts 300°
2026-05-08 09:26 37.73526 25.36571 18395 ft 356 kts 300°
2026-05-08 09:27 37.74849 25.33934 17998 ft 355 kts 300°
2026-05-08 09:27 37.76172 25.31308 17607 ft 354 kts 300°
2026-05-08 09:27 37.77501 25.28696 17219 ft 352 kts 300°
2026-05-08 09:27 37.78827 25.26096 16837 ft 352 kts 300°
2026-05-08 09:28 37.80155 25.23501 16459 ft 351 kts 300°
2026-05-08 09:28 37.81481 25.20916 16085 ft 350 kts 300°
2026-05-08 09:28 37.82809 25.18337 15715 ft 349 kts 300°
2026-05-08 09:28 37.84135 25.15767 15354 ft 349 kts 300°
2026-05-08 09:29 37.85463 25.13201 14987 ft 348 kts 300°
2026-05-08 09:29 37.86792 25.10640 14631 ft 348 kts 300°
2026-05-08 09:29 37.88124 25.08083 14284 ft 347 kts 300°
2026-05-08 09:29 37.89455 25.05534 13933 ft 347 kts 300°
2026-05-08 09:30 37.90786 25.02991 13534 ft 346 kts 300°
2026-05-08 09:30 37.92117 25.00451 13151 ft 345 kts 300°
2026-05-08 09:30 37.93435 24.97943 12763 ft 340 kts 300°
2026-05-08 09:30 37.94748 24.95454 12382 ft 339 kts 300°
2026-05-08 09:31 37.96064 24.92972 12062 ft 339 kts 301°
2026-05-08 09:31 37.97601 24.90680 11809 ft 343 kts 310°
2026-05-08 09:31 37.99261 24.88510 11561 ft 343 kts 310°
2026-05-08 09:31 38.00932 24.86349 11317 ft 343 kts 310°
2026-05-08 09:32 38.02579 24.84222 11074 ft 343 kts 310°
2026-05-08 09:32 38.04250 24.82066 10832 ft 343 kts 310°
2026-05-08 09:32 38.05922 24.79910 10592 ft 342 kts 310°
2026-05-08 09:32 38.07592 24.77758 10358 ft 342 kts 310°
2026-05-08 09:33 38.09264 24.75606 10125 ft 342 kts 310°
2026-05-08 09:33 38.10935 24.73459 9874 ft 342 kts 310°
2026-05-08 09:33 38.12599 24.71322 9613 ft 336 kts 310°
2026-05-08 09:33 38.14219 24.69245 9354 ft 325 kts 310°
2026-05-08 09:34 38.15793 24.67234 9097 ft 316 kts 310°
2026-05-08 09:34 38.17326 24.65279 8843 ft 308 kts 310°
2026-05-08 09:34 38.18823 24.63368 8589 ft 301 kts 310°
2026-05-08 09:34 38.20287 24.61500 8339 ft 295 kts 310°
2026-05-08 09:35 38.21708 24.59654 8090 ft 288 kts 306°
2026-05-08 09:35 38.22620 24.57483 7850 ft 277 kts 281°
2026-05-08 09:35 38.22898 24.55074 7606 ft 275 kts 268°
2026-05-08 09:35 38.22878 24.52649 7438 ft 274 kts 265°
2026-05-08 09:36 38.22825 24.50223 7249 ft 274 kts 265°
2026-05-08 09:36 38.22769 24.47803 7006 ft 273 kts 265°
2026-05-08 09:36 38.22712 24.45393 6771 ft 273 kts 265°
2026-05-08 09:36 38.22657 24.42986 6531 ft 272 kts 265°
2026-05-08 09:37 38.22600 24.40589 6278 ft 271 kts 265°
2026-05-08 09:37 38.22545 24.38196 6034 ft 271 kts 265°
2026-05-08 09:37 38.22506 24.35806 5784 ft 270 kts 265°
2026-05-08 09:37 38.22471 24.33424 5533 ft 269 kts 265°
2026-05-08 09:38 38.22170 24.31117 5286 ft 263 kts 248°
2026-05-08 09:38 38.21453 24.28986 5037 ft 262 kts 241°
2026-05-08 09:38 38.20640 24.26925 4916 ft 258 kts 240°
2026-05-08 09:38 38.19840 24.24920 4785 ft 251 kts 240°
2026-05-08 09:39 38.19045 24.22955 4658 ft 249 kts 240°
2026-05-08 09:39 38.18267 24.21019 4530 ft 249 kts 240°
2026-05-08 09:39 38.17487 24.19060 4404 ft 249 kts 240°
2026-05-08 09:39 38.16708 24.17102 4280 ft 248 kts 240°
2026-05-08 09:40 38.15930 24.15149 4148 ft 247 kts 240°
2026-05-08 09:40 38.15075 24.13295 4033 ft 238 kts 225°
2026-05-08 09:40 38.13723 24.12244 4000 ft 223 kts 203°
2026-05-08 09:40 38.12426 24.11289 3996 ft 213 kts 216°
2026-05-08 09:41 38.11259 24.10147 4011 ft 211 kts 217°
2026-05-08 09:41 38.10092 24.09012 3942 ft 212 kts 216°
2026-05-08 09:41 38.08922 24.07887 3727 ft 209 kts 216°
2026-05-08 09:41 38.07782 24.06796 3482 ft 199 kts 216°
2026-05-08 09:42 38.06713 24.05774 3227 ft 186 kts 216°
2026-05-08 09:42 38.05711 24.04816 2994 ft 174 kts 216°
2026-05-08 09:42 38.04770 24.03917 2772 ft 164 kts 215°
2026-05-08 09:42 38.03881 24.03068 2574 ft 154 kts 215°
2026-05-08 09:43 38.03052 24.02276 2365 ft 144 kts 216°
2026-05-08 09:43 38.02287 24.01546 2182 ft 135 kts 215°
2026-05-08 09:43 38.01533 24.00827 2006 ft 136 kts 216°
2026-05-08 09:43 38.00783 24.00111 1818 ft 134 kts 215°
2026-05-08 09:44 38.00045 23.99396 1614 ft 133 kts 216°
2026-05-08 09:44 37.99312 23.98691 1365 ft 133 kts 216°
2026-05-08 09:44 37.98586 23.97979 1251 ft 133 kts 216°
2026-05-08 09:44 37.97843 23.97296 1031 ft 129 kts 216°
2026-05-08 09:45 37.97116 23.96615 815 ft 127 kts 219°
2026-05-08 09:45 37.96400 23.95917 716 ft 131 kts 215°
2026-05-08 09:45 37.95669 23.95233 528 ft 131 kts 219°
2026-05-08 09:45 37.94937 23.94542 382 ft 132 kts 217°
2026-05-08 09:46 37.94236 23.93873 304 ft 115 kts 217°
2026-05-08 09:46 37.93699 23.93364 296 ft 73 kts 217°
2026-05-08 09:46 37.93409 23.93155 292 ft 24 kts 193°
2026-05-08 09:46 37.93264 23.93159 298 ft 19 kts 134°
2026-05-08 09:47 37.93225 23.93314 300 ft 18 kts 79°
2026-05-08 09:47 37.93322 23.93427 300 ft 20 kts 37°
2026-05-08 09:47 37.93355 23.93567 301 ft 19 kts 124°
2026-05-08 09:47 37.93268 23.93709 301 ft 22 kts 128°
2026-05-08 09:48 37.93168 23.93868 301 ft 24 kts 127°
2026-05-08 09:48 37.93062 23.94049 301 ft 27 kts 127°
2026-05-08 09:48 37.92946 23.94248 301 ft 29 kts 127°
2026-05-08 09:48 37.92897 23.94417 304 ft 20 kts 50°
2026-05-08 09:49 37.93014 23.94534 301 ft 23 kts 37°
2026-05-08 09:49 37.93147 23.94660 303 ft 25 kts 37°
2026-05-08 09:49 37.93296 23.94801 302 ft 28 kts 37°
2026-05-08 09:49 37.93453 23.94950 301 ft 26 kts 37°
2026-05-08 09:50 37.93570 23.95046 301 ft 16 kts
2026-05-08 09:50 37.93660 23.94977 301 ft 11 kts 314°
2026-05-08 09:50 37.93690 23.94930 301 ft 2 kts 307°
2026-05-08 09:50 37.93693 23.94925 301 ft 0 kts 307°